[[{"header":{"parameterUnit":"m.s-1","parameterCategory":1,"la1":30.2991,"la2":30.254,"lo1":-89.0895,"lo2":-89.0444,"dy":0.0017,"dx":0.0017,"nx":28,"ny":28,"refTime":"2024-10-16T21:00:00:Z","depth":0,"parameterNumber":2,"parameterNumberName":"U-component_of_WINDS"},"data":[0,0,0,0,0,0,0,0,0,0,0,0,0,0,0,0,0,0,0,0,0,0,0,0,0,0,0,0,0,0,0,0,0,0,0,0,0,0,0,0,0,0,0,0,0,0,0,0,0,0,0,0,0,0,0,0,0,0,-4.9337,-4.9337,0,-4.9339,-4.9339,-4.9339,-4.9208,-4.9205,-4.9201,-4.9198,-4.9201,-4.9204,-4.9207,0,0,0,0,0,0,0,0,0,0,0,0,0,-4.9221,-4.9224,-4.9337,-4.9337,-4.9337,-4.9339,-4.9339,-4.9339,-4.9209,-4.9204,-4.92,-4.9196,-4.9199,-4.9203,-4.9207,0,0,0,0,0,0,0,0,0,0,0,0,0,-4.9253,-4.9225,-4.9337,-4.9272,-4.9267,-4.9339,-4.9339,-4.9339,-4.921,-4.9204,-4.9199,-4.9194,-4.9198,-4.9203,-4.9208,-4.9343,0,0,-4.9223,-4.9225,0,0,0,0,0,0,0,0,-4.9251,-4.9257,-4.9282,-4.9277,-4.9271,-4.9268,-4.9299,-4.934,-4.9211,-4.9231,-4.9198,-4.9192,-4.9227,-4.923,-4.9241,-4.9343,-4.9343,-4.9223,-4.9227,-4.9229,-4.923,0,0,0,0,0,0,0,-4.9249,-4.9256,-4.9338,-4.9282,-4.9276,-4.9243,-4.9242,-4.9306,-4.9259,-4.9229,-4.922,-4.9222,-4.9223,-4.9237,-4.924,-4.9343,-4.9223,-4.9228,-4.9231,-4.9233,-4.9557,-4.9562,0,0,0,0,0,0,-4.9256,-4.9255,-4.9338,-4.9338,-4.9248,-4.925,-4.9248,-4.9274,-4.9257,-4.925,-4.9226,-4.9215,-4.9231,-4.9235,-4.924,-4.9398,-4.9229,-4.9233,-4.9236,-4.9551,-4.9558,-4.9564,0,0,0,0,0,0,-4.9254,-4.9264,-4.9338,-4.9294,-4.9301,-4.9257,-4.9287,-4.9277,-4.929,-4.9255,-4.9246,-4.9249,-4.9227,-4.9233,-4.9318,-4.9396,-4.9235,-4.924,-4.9544,-4.9553,-4.9561,-4.9714,0,0,0,0,0,0,-4.9251,-4.9264,-4.9315,-4.9296,-4.9304,-4.9416,-4.9292,-4.9281,-4.9299,-4.9285,-4.9274,-4.9267,-4.9223,-4.9312,-4.9323,-4.94,-4.9244,-4.9537,-4.9548,-4.9558,-4.9702,-4.9727,-4.9748,0,0,0,0,0,-4.9247,-4.9358,-4.9318,-4.9329,-4.9366,-4.9421,-4.9425,-4.9373,-4.9306,-4.9357,-4.9334,-4.9267,-4.9386,-4.9322,-4.9334,-4.9413,-4.9532,-4.9545,-4.9558,-4.9692,-4.9722,-4.9747,0,0,0,0,0,0,-4.9386,-4.9354,-4.931,-4.9417,-4.9423,-4.9399,-4.9461,-4.9406,-4.9431,-4.9417,-4.935,-4.9349,-4.9446,-4.9437,-4.9367,-4.9543,-4.9447,-4.9463,-4.9545,-4.9573,-4.9596,-4.9596,-4.9248,0,0,0,0,0,-4.943,-4.9477,-4.9446,-4.9544,-4.9549,-4.9505,-4.9527,-4.9486,-4.9489,-4.9491,-4.9474,-4.948,-4.9519,-4.9545,-4.9579,-4.97,-4.9696,-4.976,-4.9783,-4.9802,-4.9817,-4.9882,-4.991,-4.9606,-4.9605,-4.9605,0,0,-4.9519,-4.9507,-4.9541,-4.9572,-4.9571,-4.9622,-4.9508,-4.9566,-4.9603,-4.95,-4.9579,-4.9568,-4.957,-4.9675,-4.972,-4.9671,-4.99,-4.9819,-4.9834,-4.9838,-4.9898,-4.9927,-4.9952,-4.9614,-4.9613,-4.9611,0,0,-4.9709,-4.9705,-4.9786,-4.9788,-4.9789,-4.9759,-4.9779,-4.9764,-4.9752,-4.9831,-4.9755,-4.9798,-4.9866,-4.9871,-4.9882,-5.0076,-5.0016,-5.0088,-5.0209,-5.0273,-5.0297,-5.0318,-5.0388,-5.0414,-5.0103,-5.0103,-5.0104,0,-4.9821,-4.9894,-4.9835,-4.9899,-4.9915,-4.9824,-4.9907,-4.9911,-4.9924,-4.9937,-4.9882,-4.9965,-4.996,-5.0065,-5.0113,-5.0125,-5.0146,-5.009,-5.0298,-5.0319,-5.0337,-5.0403,-5.043,-5.0112,-5.0111,-5.011,-5.0109,0,-5.0031,-5.0084,-5.015,-5.0164,-5.0187,-5.0261,-5.0214,-5.0244,-5.0202,-5.0178,-5.0261,-5.0252,-5.0282,-5.0304,-5.0262,-5.0404,-5.0373,-5.031,-5.0212,-5.0376,-5.0437,-5.0462,-5.0125,-5.0122,-5.0119,-5.0117,0,0,-5.0309,-5.029,-5.0316,-5.0321,-5.0316,-5.0356,-5.0425,-5.0455,-5.0483,-5.0495,-5.0552,-5.0612,-5.0553,-5.0566,-5.0525,-5.0581,-5.0736,-5.051,-5.0509,-5.0553,-5.0893,-5.0941,-5.0972,-5.0696,-5.0701,-5.0704,-5.0893,0,-5.0493,-5.0611,-5.0561,-5.0683,-5.0731,-5.0646,-5.0706,-5.071,-5.069,-5.0728,-5.0706,-5.075,-5.0668,-5.0676,-5.0728,-5.0707,-5.0804,-5.0692,-5.075,-5.0753,-5.0753,-5.1003,-5.1055,-5.1233,-5.0916,-5.092,-5.0923,0,-5.0724,-5.0746,-5.0874,-5.0861,-5.0879,-5.0935,-5.0959,-5.0996,-5.0999,-5.0981,-5.0997,-5.0943,-5.1011,-5.0914,-5.1007,-5.0932,-5.0953,-5.0946,-5.0952,-5.0956,-5.0848,-5.1015,-5.1288,-5.1315,-5.096,-5.0957,-5.0954,0,-5.0915,-5.0976,-5.1061,-5.1068,-5.1055,-5.1097,-5.1093,-5.1091,-5.1113,-5.1134,-5.1147,-5.1176,-5.1192,-5.1216,-5.1172,-5.1105,-5.1273,-5.1171,-5.126,-5.1261,-5.1299,-5.1298,-5.1581,-5.1312,-5.1311,-5.1311,-5.131,0,-5.1127,-5.1209,-5.1146,-5.1199,-5.1288,-5.123,-5.132,-5.1307,-5.1306,-5.1355,-5.1282,-5.133,-5.1268,-5.131,-5.1276,-5.1359,-5.1367,-5.1354,-5.1344,-5.1361,-5.1363,-5.1374,-5.1361,-5.1318,-5.1316,-5.1315,-5.1314,0,-5.1355,-5.1316,-5.1403,-5.1384,-5.1381,-5.1448,-5.1432,-5.148,-5.1455,-5.1518,-5.1529,-5.1491,-5.1536,-5.1494,-5.1538,-5.1515,-5.1626,-5.1598,-5.1626,-5.1618,-5.1709,-5.1702,-5.201,-5.2048,-5.1754,-5.1757,-5.176,0,-5.1493,-5.1554,-5.1542,-5.157,-5.1571,-5.1616,-5.1638,-5.1583,-5.1609,-5.1618,-5.1665,-5.1704,-5.1733,-5.181,-5.1786,-5.1819,-5.1791,-5.1897,-5.1796,-5.1811,-5.1794,-5.1792,-5.1798,-5.1918,-5.1922,-5.1924,-5.1927,0,-5.1743,-5.1721,-5.1755,-5.1784,-5.1812,-5.1832,-5.1846,-5.1873,-5.1816,-5.1849,-5.1895,-5.1917,-5.1962,-5.2002,-5.2028,-5.2024,-5.1968,-5.1959,-5.1981,-5.1999,-5.2013,-5.2008,-5.1683,-5.1952,-5.195,-5.1948,-5.1946,-5.1945,-5.193,-5.1981,-5.1981,-5.2022,-5.2027,-5.2042,-5.2087,-5.2068,-5.2105,-5.2137,-5.2102,-5.2159,-5.2161,-5.219,-5.2194,-5.2237,-5.2193,-5.2225,-5.2233,-5.2242,-5.2256,-5.2006,-5.2241,-5.2241,-5.224,-5.2239,-5.2239,0,-5.2177,-5.2173,-5.2211,-5.2234,-5.2267,-5.2209,-5.2222,-5.2254,-5.2304,-5.2311,-5.2341,-5.2394,-5.2433,-5.2413,-5.2447,-5.2486,-5.2461,-5.2497,-5.2494,-5.2494,-5.2293,-5.2271,-5.2517,-5.2517,-5.2517,-5.2517,-5.2517,-5.2517,-5.2309,-5.2393,-5.2371,-5.2456,-5.2451,-5.2506,-5.2518,-5.2532,-5.2538,-5.2601,-5.2633,-5.2619,-5.2616,-5.2649,-5.2683,-5.2676,-5.2692,-5.2739,-5.2723,-5.2535,-5.2508,-5.2482,-5.2461,-5.2742,-5.2743,-5.292,-5.2921,-5.2923]},{"header":{"parameterUnit":"m.s-1","parameterCategory":1,"la1":30.2991,"la2":30.254,"lo1":-89.0895,"lo2":-89.0444,"dy":0.0017,"dx":0.0017,"nx":28,"ny":28,"refTime":"2024-10-16T21:00:00:Z","depth":0,"parameterNumber":3,"parameterNumberName":"V-component_of_WINDS"},"data":[0,0,0,0,0,0,0,0,0,0,0,0,0,0,0,0,0,0,0,0,0,0,0,0,0,0,0,0,0,0,0,0,0,0,0,0,0,0,0,0,0,0,0,0,0,0,0,0,0,0,0,0,0,0,0,0,0,0,-2.5219,-2.5219,0,-2.5216,-2.5216,-2.5216,-2.5193,-2.5192,-2.5192,-2.5191,-2.5187,-2.5187,-2.5188,0,0,0,0,0,0,0,0,0,0,0,0,0,-2.5203,-2.5203,-2.5219,-2.5219,-2.5219,-2.5216,-2.5216,-2.5216,-2.5193,-2.5192,-2.5192,-2.5191,-2.5187,-2.5187,-2.5188,0,0,0,0,0,0,0,0,0,0,0,0,0,-2.5206,-2.5203,-2.5219,-2.5207,-2.5206,-2.5216,-2.5216,-2.5216,-2.5193,-2.5192,-2.5191,-2.5191,-2.5187,-2.5187,-2.5188,-2.5209,0,0,-2.519,-2.519,0,0,0,0,0,0,0,0,-2.5206,-2.5206,-2.5209,-2.5208,-2.5207,-2.5204,-2.5209,-2.5214,-2.5193,-2.5198,-2.5191,-2.519,-2.5193,-2.5193,-2.5195,-2.5209,-2.5208,-2.519,-2.519,-2.5191,-2.5191,0,0,0,0,0,0,0,-2.5206,-2.5206,-2.5218,-2.5209,-2.5208,-2.5201,-2.5201,-2.521,-2.52,-2.5198,-2.5196,-2.5196,-2.5193,-2.5194,-2.5194,-2.5208,-2.519,-2.519,-2.5191,-2.5191,-2.5237,-2.5238,0,0,0,0,0,0,-2.5207,-2.5206,-2.5218,-2.5218,-2.5204,-2.5202,-2.5202,-2.5206,-2.52,-2.5199,-2.5197,-2.5195,-2.5193,-2.5194,-2.5194,-2.5217,-2.5191,-2.5191,-2.5192,-2.5236,-2.5237,-2.5238,0,0,0,0,0,0,-2.5207,-2.5208,-2.5218,-2.5212,-2.5212,-2.5204,-2.5208,-2.5206,-2.5208,-2.52,-2.5198,-2.52,-2.5193,-2.5193,-2.5205,-2.5216,-2.5191,-2.5192,-2.5235,-2.5236,-2.5238,-2.5263,0,0,0,0,0,0,-2.5207,-2.5209,-2.5217,-2.5212,-2.5213,-2.523,-2.5209,-2.5207,-2.5209,-2.5207,-2.5202,-2.5201,-2.5192,-2.5204,-2.5205,-2.5217,-2.5192,-2.5234,-2.5236,-2.5237,-2.5261,-2.5265,-2.5268,0,0,0,0,0,-2.5206,-2.5224,-2.5218,-2.5219,-2.5223,-2.5231,-2.5231,-2.5221,-2.521,-2.5218,-2.5212,-2.5201,-2.5215,-2.5205,-2.5207,-2.5218,-2.5233,-2.5235,-2.5237,-2.5259,-2.5264,-2.5268,0,0,0,0,0,0,-2.5231,-2.5224,-2.5216,-2.5233,-2.5233,-2.5227,-2.5236,-2.5227,-2.5229,-2.5226,-2.5214,-2.5213,-2.5226,-2.5223,-2.5213,-2.5237,-2.5222,-2.5224,-2.5238,-2.5243,-2.5246,-2.5246,-2.5193,0,0,0,0,0,-2.5239,-2.5246,-2.5239,-2.5255,-2.5255,-2.5246,-2.5248,-2.5241,-2.5239,-2.5239,-2.5234,-2.5233,-2.5237,-2.524,-2.5243,-2.526,-2.5258,-2.5269,-2.5272,-2.5275,-2.5277,-2.5284,-2.5289,-2.5244,-2.5244,-2.5244,0,0,-2.5254,-2.5251,-2.5256,-2.5259,-2.5258,-2.5264,-2.5246,-2.5254,-2.5258,-2.524,-2.525,-2.5247,-2.5244,-2.5259,-2.5265,-2.5257,-2.5289,-2.5278,-2.528,-2.528,-2.5287,-2.5291,-2.5295,-2.5245,-2.5245,-2.5245,0,0,-2.5286,-2.5285,-2.5297,-2.5296,-2.5294,-2.5287,-2.529,-2.5285,-2.5282,-2.5293,-2.5279,-2.5283,-2.5291,-2.5289,-2.5289,-2.5318,-2.5307,-2.532,-2.5338,-2.5346,-2.5349,-2.5352,-2.5361,-2.5365,-2.5322,-2.5322,-2.5322,0,-2.5306,-2.5316,-2.5305,-2.5313,-2.5314,-2.5298,-2.531,-2.5309,-2.5308,-2.5309,-2.53,-2.5308,-2.5305,-2.5318,-2.5325,-2.5326,-2.5328,-2.532,-2.5349,-2.5352,-2.5355,-2.5363,-2.5367,-2.5323,-2.5323,-2.5323,-2.5323,0,-2.5339,-2.5346,-2.5356,-2.5355,-2.5357,-2.5368,-2.5357,-2.5361,-2.5352,-2.5347,-2.5356,-2.5352,-2.5354,-2.5356,-2.5349,-2.5367,-2.5362,-2.5352,-2.5336,-2.5361,-2.5368,-2.5372,-2.5325,-2.5325,-2.5325,-2.5324,0,0,-2.5387,-2.5379,-2.5383,-2.5381,-2.5377,-2.5382,-2.5391,-2.5392,-2.5394,-2.5394,-2.54,-2.5406,-2.5396,-2.5396,-2.5388,-2.5394,-2.5415,-2.5382,-2.5382,-2.5388,-2.5434,-2.5441,-2.5445,-2.5408,-2.5409,-2.5409,-2.5434,0,-2.5416,-2.5431,-2.5421,-2.5437,-2.5442,-2.5426,-2.5433,-2.5431,-2.5425,-2.5428,-2.5422,-2.5426,-2.5413,-2.5413,-2.5418,-2.5412,-2.5424,-2.541,-2.5413,-2.5413,-2.5413,-2.545,-2.5458,-2.5481,-2.5437,-2.5437,-2.5438,0,-2.5453,-2.5453,-2.547,-2.5463,-2.5465,-2.5471,-2.5471,-2.5474,-2.5471,-2.5466,-2.5466,-2.5455,-2.5462,-2.5447,-2.5455,-2.5446,-2.5446,-2.5443,-2.5444,-2.5443,-2.5426,-2.5449,-2.5488,-2.5491,-2.5443,-2.5442,-2.5442,0,-2.5484,-2.5489,-2.5499,-2.5499,-2.5491,-2.5496,-2.5493,-2.5489,-2.549,-2.5489,-2.5489,-2.5489,-2.5489,-2.5489,-2.5479,-2.5469,-2.5488,-2.5472,-2.5483,-2.5483,-2.5487,-2.5487,-2.5527,-2.5489,-2.5489,-2.5489,-2.5489,0,-2.5517,-2.5528,-2.5513,-2.5519,-2.553,-2.5517,-2.5528,-2.5523,-2.5519,-2.5523,-2.551,-2.5514,-2.55,-2.5502,-2.5494,-2.5501,-2.5501,-2.5497,-2.5494,-2.5498,-2.5498,-2.5497,-2.5495,-2.549,-2.549,-2.549,-2.549,0,-2.5554,-2.5545,-2.5555,-2.5546,-2.5544,-2.5553,-2.5545,-2.555,-2.5543,-2.5548,-2.5549,-2.5538,-2.554,-2.5529,-2.5529,-2.5523,-2.5534,-2.553,-2.5536,-2.5534,-2.5545,-2.5543,-2.5584,-2.5588,-2.5549,-2.555,-2.555,0,-2.5576,-2.5583,-2.5575,-2.5577,-2.5575,-2.5578,-2.5579,-2.5566,-2.5567,-2.5563,-2.5568,-2.5568,-2.5568,-2.5572,-2.5563,-2.5563,-2.5557,-2.5571,-2.5557,-2.5559,-2.5556,-2.5555,-2.5555,-2.5574,-2.5575,-2.5575,-2.5576,0,-2.5614,-2.5609,-2.561,-2.561,-2.5611,-2.561,-2.5608,-2.561,-2.5596,-2.5598,-2.56,-2.5599,-2.5599,-2.5599,-2.5597,-2.5593,-2.5581,-2.558,-2.5582,-2.5585,-2.5588,-2.5585,-2.5543,-2.5579,-2.5579,-2.5579,-2.5578,-2.5578,-2.5643,-2.5648,-2.5643,-2.5645,-2.5642,-2.564,-2.5644,-2.5637,-2.5638,-2.5637,-2.5629,-2.5632,-2.5626,-2.5622,-2.5619,-2.562,-2.5613,-2.5617,-2.5617,-2.5618,-2.5619,-2.5588,-2.562,-2.5619,-2.5619,-2.5619,-2.5619,0,-2.568,-2.5675,-2.5677,-2.5674,-2.5675,-2.5665,-2.5662,-2.5663,-2.5665,-2.5661,-2.5661,-2.5662,-2.5662,-2.5653,-2.5652,-2.5654,-2.5649,-2.5654,-2.5653,-2.5652,-2.5626,-2.5624,-2.5658,-2.5658,-2.5658,-2.5658,-2.5658,-2.5658,-2.5699,-2.5706,-2.57,-2.5706,-2.5701,-2.5704,-2.5702,-2.57,-2.5697,-2.5698,-2.5698,-2.5692,-2.5686,-2.5684,-2.5683,-2.568,-2.568,-2.5686,-2.5682,-2.5658,-2.5654,-2.565,-2.5648,-2.5687,-2.5687,-2.5707,-2.5707,-2.5707]}]]